Camp Douglas, WI

9:35 AM CDT on August 27, 2016 (GMT -0500)
Volk

Weather History for KVOK - October, 2012

Change the Weather History Date:

Saturday, October 13, 2012

  Actual Average Record
Temperature  
Mean Temperature 50 °F -  
Max Temperature 61 °F 57 °F 78 °F (2000)
Min Temperature 38 °F 40 °F 30 °F (2013)
Degree Days  
Heating Degree Days 16    
Moisture  
Dew Point 48 °F    
Average Humidity 96    
Maximum Humidity 100    
Minimum Humidity 53    
Precipitation  
Precipitation 0.47 in - - ()
Sea Level Pressure  
Sea Level Pressure 29.89 in    
Wind  
Wind Speed 6 mph (SE)    
Max Wind Speed 10 mph    
Max Gust Speed -    
Visibility 4 miles    
Events Rain , Thunderstorm    
Averages and records for this station are not official NWS values.
T = Trace of Precipitation, MM = Missing Value Source: NWS Daily Summary

Daily Weather History Graph

Daily Weather History Graph

Search for Another Location

Airport or City:

Trip Planner

Search our weather history database for the weather conditions in past years. The results will help you decide how hot, cold, wet, or windy it might be!

Date:

Astronomy

Oct. 13, 2012 Rise Set
Actual Time 7:13 AM CDT 6:19 PM CDT
Civil Twilight 6:44 AM CDT 6:48 PM CDT
Nautical Twilight 6:11 AM CDT 7:22 PM CDT
Astronomical Twilight 5:37 AM CDT 7:55 PM CDT
Moon 5:00 AM CDT (10/13) 5:05 PM CDT (10/13)
Length of Visible Light 12h 04m
Length of Day
11h 06m
Waning Crescent, 5% of the Moon is Illuminated
Oct 13
Waning Crescent
Oct 15
New
Oct 21
First Quarter
Oct 29
Full
Nov 6
Last Quarter

Hourly Weather History & Observations

Time (CDT) Temp. Windchill Dew Point Humidity Pressure Visibility Wind Dir Wind Speed Gust Speed Precip Events Conditions
12:10 AM 41.0 °F 36.4 °F 24.8 °F 53% 30.19 in 10.0 mi East 6.9 mph - N/A Rain Light Rain
12:55 AM 38.1 °F 32.9 °F 32.9 °F 81% 30.16 in 10.0 mi East 6.9 mph - 0.01 in Rain , Thunderstorm Light Rain
1:09 AM 39.2 °F 35.0 °F 33.8 °F 81% 30.16 in 10.0 mi SE 5.8 mph - N/A   Mostly Cloudy
1:12 AM 39.2 °F 33.0 °F 33.8 °F 81% 30.14 in 10.0 mi SE 9.2 mph - N/A Thunderstorm Thunderstorm
1:15 AM 39.2 °F 32.5 °F 35.6 °F 87% 30.14 in 10.0 mi SE 10.4 mph - N/A Rain , Thunderstorm Light Thunderstorms and Rain
1:27 AM 39.2 °F 35.0 °F 33.8 °F 81% 30.16 in 10.0 mi SE 5.8 mph - N/A Rain , Thunderstorm Light Rain
1:36 AM 39.2 °F 32.5 °F 33.8 °F 81% 30.14 in 5.0 mi SE 10.4 mph - N/A Rain , Thunderstorm Light Thunderstorms and Rain
1:51 AM 39.2 °F 35.9 °F 35.6 °F 87% 30.15 in 4.0 mi SE 4.6 mph - N/A Rain , Thunderstorm Light Rain
1:55 AM 38.7 °F 34.3 °F 36.1 °F 91% 30.15 in 6.0 mi SE 5.8 mph - 0.14 in Rain , Thunderstorm Light Rain
1:56 AM 39.2 °F 34.2 °F 35.6 °F 87% 30.15 in 7.0 mi SE 6.9 mph - N/A Rain , Thunderstorm Light Thunderstorms and Rain
2:13 AM 39.2 °F 35.0 °F 37.4 °F 93% 30.15 in 7.0 mi ESE 5.8 mph - N/A Rain , Thunderstorm Light Rain
2:34 AM 39.2 °F 33.6 °F 37.4 °F 93% 30.13 in 7.0 mi East 8.1 mph - N/A   Light Drizzle
2:38 AM 39.2 °F 34.2 °F 37.4 °F 93% 30.13 in 6.0 mi East 6.9 mph - N/A   Light Drizzle
2:39 AM 39.2 °F 34.2 °F 37.4 °F 93% 30.13 in 6.0 mi East 6.9 mph - N/A   Light Drizzle
2:41 AM 39.2 °F 33.6 °F 37.4 °F 93% 30.13 in 7.0 mi East 8.1 mph - N/A   Overcast
2:47 AM 39.2 °F 33.6 °F 37.4 °F 93% 30.12 in 9.0 mi East 8.1 mph - N/A   Light Drizzle
2:55 AM 39.4 °F 33.2 °F 37.8 °F 94% 30.11 in 6.0 mi ESE 9.2 mph - 0.08 in Rain Light Rain
3:17 AM 39.2 °F 35.0 °F 37.4 °F 93% 30.10 in 7.0 mi ESE 5.8 mph - N/A Rain Light Rain
3:20 AM 39.2 °F 35.0 °F 37.4 °F 93% 30.10 in 7.0 mi ESE 5.8 mph - N/A Rain Light Rain
3:34 AM 39.2 °F 34.2 °F 37.4 °F 93% 30.09 in 4.0 mi ESE 6.9 mph - N/A Rain Light Rain
3:42 AM 39.2 °F 33.6 °F 39.2 °F 100% 30.08 in 5.0 mi SE 8.1 mph - N/A Rain Light Rain
3:55 AM 39.6 °F 34.0 °F 38.5 °F 96% 30.07 in 4.0 mi ESE 8.1 mph - 0.05 in   Overcast
4:08 AM 39.2 °F 33.6 °F 39.2 °F 100% 30.06 in 5.0 mi ESE 8.1 mph - N/A   Light Drizzle
4:10 AM 39.2 °F 33.6 °F 39.2 °F 100% 30.06 in 5.0 mi ESE 8.1 mph - N/A   Light Drizzle
4:20 AM 39.2 °F 33.6 °F 39.2 °F 100% 30.06 in 4.0 mi SE 8.1 mph - N/A Rain Light Rain
4:22 AM 39.2 °F 33.0 °F 39.2 °F 100% 30.06 in 4.0 mi ESE 9.2 mph - N/A Rain Light Rain
4:25 AM 39.2 °F 33.0 °F 39.2 °F 100% 30.06 in 5.0 mi ESE 9.2 mph - N/A Rain Light Rain
4:28 AM 39.2 °F 33.0 °F 39.2 °F 100% 30.05 in 4.0 mi ESE 9.2 mph - N/A Rain Light Rain
4:36 AM 39.2 °F 33.0 °F 39.2 °F 100% 30.05 in 3.0 mi ESE 9.2 mph - N/A Rain Light Rain
4:50 AM 39.2 °F 33.0 °F 39.2 °F 100% 30.05 in 6.0 mi SE 9.2 mph - N/A   Overcast
4:55 AM 39.9 °F 34.5 °F 38.8 °F 96% 30.05 in 6.0 mi SE 8.1 mph - 0.04 in   Overcast
4:57 AM 39.2 °F 33.6 °F 39.2 °F 100% 30.05 in 6.0 mi SE 8.1 mph - N/A   Overcast
4:59 AM 39.2 °F 33.6 °F 39.2 °F 100% 30.05 in 6.0 mi SE 8.1 mph - N/A Rain Light Rain
5:08 AM 39.2 °F 33.0 °F 39.2 °F 100% 30.04 in 5.0 mi SE 9.2 mph - N/A   Overcast
5:11 AM 39.2 °F 33.6 °F 39.2 °F 100% 30.04 in 4.0 mi ESE 8.1 mph - N/A Rain Light Rain
5:13 AM 39.2 °F 34.2 °F 39.2 °F 100% 30.04 in 4.0 mi ESE 6.9 mph - N/A Rain Light Rain
5:23 AM 39.2 °F 33.6 °F 39.2 °F 100% 30.04 in 4.0 mi ESE 8.1 mph - N/A   Overcast
5:55 AM 40.3 °F 34.9 °F 39.2 °F 96% 30.02 in 6.0 mi ESE 8.1 mph - 0.01 in   Overcast
6:03 AM 41.0 °F 35.8 °F 39.2 °F 93% 30.01 in 8.0 mi ESE 8.1 mph - N/A   Overcast
6:39 AM 41.0 °F 35.2 °F 39.2 °F 93% 29.99 in 8.0 mi ESE 9.2 mph - N/A   Overcast
6:49 AM 41.0 °F 35.2 °F 39.2 °F 93% 29.99 in 8.0 mi ESE 9.2 mph - N/A   Overcast
6:55 AM 40.6 °F 34.8 °F 39.7 °F 97% 29.98 in 7.0 mi ESE 9.2 mph - 0.00 in   Overcast
7:05 AM 41.0 °F 35.2 °F 39.2 °F 93% 29.97 in 5.0 mi ESE 9.2 mph - N/A Rain Light Rain
7:36 AM 41.0 °F 36.4 °F 39.2 °F 93% 29.96 in 2.5 mi East 6.9 mph - N/A Rain Light Rain
7:37 AM 41.0 °F 37.1 °F 39.2 °F 93% 29.96 in 2.0 mi East 5.8 mph - N/A Rain Light Rain
7:40 AM 41.0 °F 37.1 °F 41.0 °F 100% 29.96 in 1.8 mi East 5.8 mph - N/A Rain Rain
7:45 AM 41.0 °F 36.4 °F 41.0 °F 100% 29.96 in 2.0 mi ESE 6.9 mph - N/A Rain Light Rain
7:46 AM 41.0 °F 36.4 °F 41.0 °F 100% 29.96 in 2.5 mi ESE 6.9 mph - N/A Rain Light Rain
7:48 AM 41.0 °F 36.4 °F 41.0 °F 100% 29.95 in 3.0 mi ESE 6.9 mph - N/A Rain Light Rain
7:49 AM 41.0 °F 35.2 °F 41.0 °F 100% 29.94 in 3.0 mi ESE 9.2 mph - N/A Rain Light Rain
7:55 AM 41.2 °F 36.0 °F 40.5 °F 97% 29.94 in 4.0 mi ESE 8.1 mph - 0.13 in Rain , Thunderstorm Light Rain
8:00 AM 41.0 °F 37.1 °F 41.0 °F 100% 29.94 in 2.5 mi ESE 5.8 mph - N/A Rain , Thunderstorm Light Rain
8:01 AM 41.0 °F 36.4 °F 41.0 °F 100% 29.91 in 3.0 mi SE 6.9 mph - N/A Rain , Thunderstorm Light Rain Showers
8:22 AM 41.0 °F 36.4 °F 41.0 °F 100% 29.89 in 2.5 mi East 6.9 mph - N/A Rain , Thunderstorm Light Thunderstorms and Rain
8:55 AM 41.0 °F 36.4 °F 41.0 °F 100% 29.93 in 4.0 mi SE 6.9 mph - N/A Rain , Thunderstorm Light Thunderstorms and Rain
9:37 AM 42.8 °F 38.6 °F 41.0 °F 93% 29.90 in 2.5 mi SSE 6.9 mph - N/A Rain Light Rain Showers
9:55 AM 42.8 °F - 42.8 °F 100% 29.92 in 2.0 mi Calm Calm - N/A Rain Light Rain Showers
10:27 AM 42.8 °F - 42.8 °F 100% 29.88 in 1.5 mi Calm Calm - N/A Rain Rain Showers
10:55 AM 44.6 °F 42.2 °F 44.6 °F 100% 29.88 in 1.5 mi SE 4.6 mph - N/A Rain Light Rain Showers
11:20 AM 46.4 °F 44.3 °F 46.4 °F 100% 29.83 in 3.0 mi East 4.6 mph - N/A Rain Light Rain Showers
11:55 AM 48.2 °F - 46.4 °F 93% 29.84 in 4.0 mi Variable 5.8 mph - N/A Rain Light Rain
12:42 PM 48.2 °F - 48.2 °F 100% 29.81 in 5.0 mi East 2.3 mph - N/A   Overcast
12:55 PM 48.2 °F - 48.2 °F 100% 29.83 in 5.0 mi East 3.5 mph - N/A   Overcast
1:41 PM 50.0 °F - 50.0 °F 100% 29.76 in 2.0 mi East 4.6 mph - N/A   Overcast
1:55 PM 50.0 °F - 50.0 °F 100% 29.78 in 2.0 mi East 3.5 mph - N/A   Overcast
2:55 PM 53.6 °F - 51.8 °F 94% 29.75 in 2.0 mi East 3.5 mph - N/A   Overcast
3:55 PM 55.4 °F - 55.4 °F 100% 29.73 in 2.0 mi SSE 3.5 mph - N/A   Overcast
4:13 PM 57.2 °F - 55.4 °F 94% 29.73 in 2.5 mi Calm Calm - N/A   Overcast
4:19 PM 57.2 °F - 55.4 °F 94% 29.73 in 2.0 mi Calm Calm - N/A   Overcast
4:25 PM 57.2 °F - 55.4 °F 94% 29.73 in 1.8 mi Calm Calm - N/A   Overcast
4:28 PM 57.2 °F - 55.4 °F 94% 29.73 in 1.5 mi Calm Calm - N/A   Overcast
4:32 PM 57.2 °F - 55.4 °F 94% 29.73 in 1.2 mi Calm Calm - N/A   Overcast
4:45 PM 57.2 °F - 55.4 °F 94% 29.73 in 0.8 mi SE 3.5 mph - N/A   Mist
4:48 PM 57.2 °F - 55.4 °F 94% 29.73 in 1.0 mi SE 3.5 mph - N/A   Mist
4:55 PM 56.8 °F - 56.3 °F 98% 29.73 in 1.0 mi SE 3.5 mph - N/A   Mist
5:21 PM 57.2 °F - 57.2 °F 100% 29.73 in 1.0 mi SE 3.5 mph - N/A   Overcast
5:29 PM 57.2 °F - 57.2 °F 100% 29.72 in 1.0 mi SE 5.8 mph - N/A   Overcast
5:37 PM 57.2 °F - 57.2 °F 100% 29.72 in 1.2 mi SSE 4.6 mph - N/A   Overcast
5:38 PM 57.2 °F - 57.2 °F 100% 29.72 in 1.2 mi SE 4.6 mph - N/A   Overcast
5:47 PM 57.2 °F - 57.2 °F 100% 29.73 in 1.2 mi SE 3.5 mph - N/A   Overcast
5:48 PM 57.2 °F - 57.2 °F 100% 29.73 in 1.5 mi SE 3.5 mph - N/A   Overcast
5:58 PM 57.2 °F - 57.2 °F 100% 29.73 in 1.5 mi SE 3.5 mph - N/A   Overcast
6:00 PM 57.2 °F - 57.2 °F 100% 29.73 in 1.2 mi SE 3.5 mph - N/A   Overcast
6:01 PM 57.2 °F - 57.2 °F 100% 29.73 in 1.2 mi SE 3.5 mph - N/A   Overcast
6:15 PM 57.2 °F - 57.2 °F 100% 29.73 in 1.2 mi SE 3.5 mph - N/A   Overcast
6:23 PM 57.2 °F - 57.2 °F 100% 29.73 in 1.2 mi SE 3.5 mph - N/A   Overcast
6:28 PM 57.2 °F - 57.2 °F 100% 29.74 in 1.5 mi SE 3.5 mph - N/A   Overcast
6:31 PM 57.2 °F - 57.2 °F 100% 29.74 in 1.8 mi SE 3.5 mph - N/A   Overcast
6:35 PM 57.2 °F - 57.2 °F 100% 29.73 in 1.8 mi SE 3.5 mph - N/A   Overcast
6:44 PM 57.2 °F - 57.2 °F 100% 29.74 in 2.0 mi SSE 4.6 mph - N/A   Overcast
6:48 PM 57.2 °F - 57.2 °F 100% 29.74 in 2.0 mi SSE 5.8 mph - N/A   Overcast
6:49 PM 57.2 °F - 57.2 °F 100% 29.74 in 2.5 mi SSE 5.8 mph - N/A   Overcast
6:51 PM 57.2 °F - 57.2 °F 100% 29.74 in 3.0 mi SSE 5.8 mph - N/A   Overcast
6:55 PM 58.1 °F - 57.7 °F 99% 29.74 in 4.0 mi SSE 4.6 mph - N/A   Overcast
6:57 PM 57.2 °F - 57.2 °F 100% 29.74 in 4.0 mi SSE 4.6 mph - N/A   Overcast
7:02 PM 59.0 °F - 57.2 °F 94% 29.74 in 4.0 mi SSE 4.6 mph - N/A   Overcast
7:12 PM 59.0 °F - 57.2 °F 94% 29.74 in 4.0 mi SSE 4.6 mph - N/A   Overcast
7:17 PM 59.0 °F - 57.2 °F 94% 29.73 in 3.0 mi Calm Calm - N/A   Mostly Cloudy
7:54 PM 59.0 °F - 59.0 °F 100% 29.74 in 8.0 mi SSE 6.9 mph - N/A   Scattered Clouds
7:55 PM 58.6 °F - 58.5 °F 99% 29.74 in 8.0 mi SSE 6.9 mph - N/A   Scattered Clouds
7:56 PM 59.0 °F - 59.0 °F 100% 29.74 in 8.0 mi SSE 6.9 mph - N/A   Mostly Cloudy
8:28 PM 59.0 °F - 59.0 °F 100% 29.73 in 7.0 mi SSE 3.5 mph - N/A   Mostly Cloudy
8:37 PM 59.0 °F - 59.0 °F 100% 29.73 in 7.0 mi SSE 3.5 mph - N/A   Overcast
8:43 PM 60.8 °F - 59.0 °F 94% 29.73 in 7.0 mi SSE 3.5 mph - N/A   Overcast
8:55 PM 60.3 °F - 59.5 °F 97% 29.73 in 8.0 mi Calm Calm - N/A   Overcast
9:05 PM 59.0 °F - 59.0 °F 100% 29.73 in 6.0 mi Calm Calm - N/A   Overcast
9:19 PM 59.0 °F - 59.0 °F 100% 29.72 in 7.0 mi Calm Calm - N/A   Overcast
9:22 PM 59.0 °F - 59.0 °F 100% 29.72 in 7.0 mi Calm Calm - N/A   Overcast
9:55 PM 59.2 °F - 58.6 °F 98% 29.73 in 3.0 mi SSE 4.6 mph - N/A   Overcast
10:28 PM 60.8 °F - 60.8 °F 100% 29.72 in 6.0 mi South 6.9 mph - N/A   Overcast
10:55 PM 61.2 °F - 60.3 °F 97% 29.72 in 6.0 mi South 6.9 mph - N/A   Overcast
10:56 PM 60.8 °F - 60.8 °F 100% 29.72 in 6.0 mi South 6.9 mph - N/A Rain Light Rain
11:00 PM 60.8 °F - 60.8 °F 100% 29.72 in 5.0 mi South 5.8 mph - N/A Rain Light Rain
11:06 PM 60.8 °F - 60.8 °F 100% 29.71 in 5.0 mi South 3.5 mph - N/A   Overcast
11:20 PM 60.8 °F - 60.8 °F 100% 29.71 in 5.0 mi SSE 4.6 mph - N/A   Overcast
11:29 PM 60.8 °F - 60.8 °F 100% 29.70 in 4.0 mi SSE 4.6 mph - N/A   Overcast
11:55 PM 61.2 °F - 60.6 °F 98% 29.69 in 3.0 mi SSE 5.8 mph - 0.01 in   Overcast